Vorticity
16 5 4 4 9 6 3 4 3 3 4 6 8 10 9 5 5 3 2 2 2 2 2 3 3 3 4 5 5 6 7 8 8 8 8 10 9 8 8 8 7 6 6
5 11 5 6 11 6 4 4 3 4 6 8 12 9 8 6 3 2 2 3 3 3 4 4 4 5 5 5 7 10 9 8 7 6 6 7 8 7 7 7 7 7 8
9 8 5 8 9 6 5 5 4 4 6 9 7 6 5 4 4 3 3 3 4 4 5 5 7 7 7 9 10 8 6 5 5 4 4 5 6 5 5 4 5 4 5
9 12 5 7 8 4 5 5 4 6 6 7 6 5 5 4 3 4 4 4 4 4 5 8 8 8 9 9 6 5 5 5 6 6 3 3 3 3 4 4 4 4 4
14 7 7 6 4 4 5 5 5 4 5 6 6 6 5 4 4 4 4 4 4 4 6 7 7 8 9 8 6 3 3 5 6 8 7 6 4 4 4 4 4 4 5
7 9 9 6 4 3 5 6 5 4 5 5 6 6 5 5 5 5 5 4 3 4 6 6 7 8 10 6 4 4 4 6 6 7 7 7 7 6 6 5 5 6 5
4 15 8 7 4 3 4 7 5 4 5 5 6 6 6 5 5 5 5 4 4 5 6 5 5 5 5 4 4 5 5 6 6 6 7 7 7 7 7 6 5 6 6
8 5 11 8 5 4 4 6 6 4 4 5 6 6 6 5 5 5 5 4 4 5 5 4 5 5 5 5 5 6 5 6 6 6 6 6 6 7 6 7 6 6 7
3 5 10 9 5 4 4 6 6 5 4 5 5 6 6 6 6 6 5 4 4 5 4 4 5 5 5 5 6 6 6 6 6 6 6 6 6 6 6 6 7 7 8
3 2 5 8 8 4 4 5 6 5 5 5 6 6 6 6 6 6 5 5 5 5 5 4 4 5 5 5 5 5 6 5 6 6 6 6 6 6 6 6 7 7 7
3 3 3 7 8 5 4 5 6 5 5 6 6 6 6 5 6 6 6 6 5 5 5 5 5 5 4 5 5 5 5 5 6 6 6 6 6 6 6 6 7 7 7
3 2 2 6 8 5 4 4 6 7 6 5 6 6 5 6 6 6 6 6 6 5 5 5 5 4 4 4 4 5 5 5 5 5 6 5 5 6 6 6 6 6 6
12 8 3 5 7 7 5 4 4 7 6 6 6 5 5 5 6 6 6 6 6 5 5 5 5 4 4 4 4 4 4 5 5 5 5 5 5 5 5 6 6 6 6
9 3 5 5 6 6 4 5 5 7 7 6 6 5 5 6 6 6 6 6 6 6 6 5 5 4 4 4 4 5 5 5 5 5 5 5 5 5 5 6 6 6 6
61 1 6 8 6 5 5 4 5 7 6 6 5 6 6 6 6 6 6 7 6 6 5 5 5 4 4 4 5 5 5 5 5 5 5 5 5 5 6 6 6 6 6
38 1 8 8 6 4 5 5 5 7 6 6 6 6 5 6 6 6 7 6 6 6 5 5 5 5 5 5 5 5 5 5 5 5 6 6 5 6 5 5 5 5 5
32 20 9 7 6 4 4 5 5 7 6 6 6 6 6 6 6 6 6 5 5 5 5 5 5 5 5 4 4 4 5 5 5 6 6 6 6 6 6 6 5 5 6
-19 47 -0 24 17 3 5 5 6 6 7 7 6 6 6 6 6 6 6 5 5 5 5 5 5 4 4 4 4 5 5 5 5 5 6 7 6 6 6 6 6 6 6
17 35 -8 27 2 4 5 6 6 6 6 7 7 6 6 6 6 6 6 5 5 6 5 4 4 4 4 4 4 4 5 6 6 6 6 7 7 6 6 6 6 6 7
33 -2 -3 -24 28 7 12 6 5 6 6 6 6 6 6 6 6 5 6 6 5 5 5 4 4 4 4 3 4 4 4 5 5 5 6 6 6 5 6 6 7 7 7
18 8 1 47 -41 20 31 4 4 6 7 7 6 5 5 6 6 6 5 6 5 5 4 4 4 4 4 4 3 4 5 5 5 6 6 7 6 6 6 6 7 8 8
10 9 6 13 9 3 1 20 9 4 5 6 7 6 6 6 5 5 6 5 5 4 5 4 5 5 4 5 4 4 5 5 5 6 6 5 6 6 7 7 7 7 7
11 5 18 16 2 11 15 13 1 16 2 1 6 6 5 5 5 6 6 7 5 5 4 4 4 4 4 4 5 4 7 6 6 6 6 7 8 7 7 8 8 7 7
11 11 6 12 14 13 23 20 -12 17 -7 9 3 1 3 4 7 5 6 6 6 5 5 5 5 5 4 4 6 6 6 6 6 7 6 8 8 8 8 7 7 8 7
11 9 22 4 4 11 36 -4 19 18 6 15 -8 -10 21 8 6 7 6 6 6 5 5 4 4 5 4 6 2 3 5 4 6 7 8 9 8 7 7 7 8 7 5
7 7 8 14 -3 18 1 40 -10 -0 28 -9 12 12 34 -12 7 3 2 -2 -1 1 2 -2 1 -2 4 2 -2 -0 4 2 4 9 9 8 7 8 8 8 6 4 3
Height
3130 3132 3133 3134 3136 3138 3140 3140 3142 3143 3144 3145 3146 3147 3147 3148 3149 3150 3151 3152 3153 3154 3154 3154 3154 3154 3154 3154 3153 3153 3153 3153 3153 3153 3152 3153 3153 3153 3152 3152 3152 3152 3152
3129 3130 3132 3133 3134 3137 3139 3140 3141 3143 3144 3145 3146 3147 3148 3149 3150 3151 3152 3153 3154 3154 3155 3154 3154 3154 3154 3153 3153 3154 3153 3154 3153 3153 3153 3153 3153 3153 3153 3153 3152 3153 3153
3126 3128 3130 3131 3133 3136 3138 3140 3141 3142 3144 3144 3146 3147 3148 3149 3151 3152 3152 3153 3154 3155 3156 3155 3155 3155 3154 3154 3154 3155 3155 3155 3154 3154 3154 3154 3154 3154 3154 3153 3153 3153 3152
3125 3126 3128 3130 3132 3135 3137 3139 3141 3142 3144 3144 3145 3147 3148 3149 3151 3152 3153 3154 3154 3155 3155 3155 3155 3155 3155 3155 3155 3156 3156 3156 3156 3155 3155 3154 3154 3154 3154 3154 3153 3153 3153
3122 3124 3127 3129 3131 3133 3135 3138 3140 3142 3143 3144 3145 3147 3148 3149 3150 3152 3153 3154 3154 3154 3154 3155 3155 3155 3156 3156 3157 3157 3157 3157 3157 3156 3156 3155 3155 3155 3154 3154 3154 3154 3153
3120 3122 3125 3127 3130 3132 3134 3136 3139 3141 3142 3144 3145 3146 3147 3148 3150 3151 3152 3153 3154 3155 3154 3155 3156 3156 3156 3157 3157 3157 3157 3157 3156 3156 3156 3156 3155 3155 3155 3155 3155 3154 3153
3119 3121 3123 3125 3128 3130 3132 3135 3137 3140 3142 3143 3144 3146 3147 3148 3149 3151 3152 3153 3154 3154 3155 3155 3156 3156 3157 3157 3157 3158 3157 3157 3157 3156 3156 3157 3156 3155 3155 3155 3154 3153 3153
3116 3119 3121 3123 3125 3128 3131 3133 3135 3138 3140 3142 3144 3145 3146 3147 3149 3150 3152 3153 3154 3154 3154 3155 3156 3157 3157 3157 3158 3158 3157 3157 3157 3157 3156 3156 3156 3156 3155 3154 3153 3152 3152
3111 3115 3119 3120 3122 3125 3128 3131 3133 3136 3138 3141 3142 3144 3145 3147 3148 3149 3151 3152 3154 3154 3154 3155 3156 3157 3158 3158 3159 3159 3159 3158 3158 3157 3157 3157 3156 3155 3155 3154 3154 3153 3152
3107 3112 3116 3118 3121 3123 3125 3128 3131 3133 3136 3139 3141 3143 3144 3146 3148 3149 3150 3152 3153 3154 3155 3156 3156 3156 3157 3158 3159 3159 3159 3159 3158 3158 3157 3157 3157 3156 3155 3154 3153 3152 3151
3103 3107 3112 3115 3118 3121 3124 3126 3128 3131 3134 3137 3140 3141 3143 3144 3147 3148 3150 3151 3152 3154 3155 3156 3156 3156 3157 3158 3159 3159 3159 3159 3159 3159 3158 3158 3157 3156 3155 3154 3153 3152 3150
3101 3104 3108 3113 3116 3119 3122 3125 3127 3129 3132 3134 3137 3140 3141 3142 3145 3147 3148 3150 3152 3153 3155 3156 3156 3155 3157 3158 3158 3159 3159 3159 3159 3159 3158 3158 3157 3156 3155 3153 3152 3151 3150
3097 3099 3104 3108 3113 3118 3121 3123 3126 3129 3130 3132 3135 3138 3140 3141 3142 3145 3147 3149 3151 3153 3154 3154 3155 3156 3156 3157 3158 3158 3159 3159 3159 3158 3158 3157 3156 3155 3154 3153 3152 3151 3150
3082 3091 3098 3104 3109 3114 3118 3121 3124 3128 3129 3131 3133 3136 3138 3140 3141 3143 3145 3148 3150 3152 3153 3154 3154 3154 3155 3157 3157 3158 3158 3158 3158 3157 3157 3156 3155 3154 3153 3152 3151 3150 3149
3061 3084 3093 3098 3104 3109 3114 3117 3121 3125 3127 3129 3132 3134 3137 3139 3140 3142 3144 3146 3149 3151 3152 3153 3154 3154 3155 3155 3156 3157 3157 3156 3156 3156 3155 3155 3153 3152 3151 3150 3149 3148 3147
3043 3079 3089 3093 3099 3104 3110 3114 3118 3121 3124 3127 3130 3132 3135 3137 3139 3140 3142 3145 3147 3149 3150 3151 3152 3153 3154 3155 3155 3155 3155 3155 3154 3154 3153 3153 3151 3150 3149 3148 3146 3145 3144
3052 3072 3080 3088 3094 3101 3107 3111 3115 3118 3121 3124 3127 3130 3132 3135 3137 3138 3140 3142 3145 3147 3148 3149 3151 3152 3152 3153 3153 3153 3154 3153 3152 3152 3151 3151 3149 3148 3146 3145 3144 3142 3141
3054 3059 3072 3081 3091 3098 3102 3107 3111 3114 3117 3121 3123 3127 3130 3132 3134 3136 3137 3139 3142 3144 3146 3147 3148 3150 3150 3150 3150 3151 3151 3151 3150 3149 3148 3148 3147 3146 3144 3143 3141 3140 3138
3053 3059 3068 3077 3084 3091 3097 3102 3106 3109 3113 3116 3119 3122 3125 3128 3131 3133 3135 3136 3138 3141 3143 3144 3146 3147 3148 3149 3148 3148 3148 3148 3147 3146 3145 3145 3144 3143 3141 3140 3138 3136 3135
3059 3061 3053 3066 3077 3082 3089 3096 3100 3105 3109 3112 3115 3118 3121 3124 3127 3129 3131 3133 3135 3138 3140 3141 3142 3144 3145 3146 3146 3146 3146 3146 3144 3143 3142 3141 3140 3139 3137 3136 3135 3133 3131
3059 3068 3066 3062 3068 3071 3078 3089 3095 3100 3106 3109 3112 3114 3117 3121 3124 3126 3128 3130 3131 3134 3136 3137 3138 3139 3141 3142 3143 3142 3142 3143 3142 3141 3139 3138 3137 3136 3135 3133 3131 3129 3128
3063 3066 3065 3064 3069 3075 3075 3081 3086 3096 3101 3105 3107 3110 3113 3116 3119 3121 3124 3126 3128 3130 3132 3133 3134 3135 3136 3137 3138 3138 3139 3140 3139 3137 3136 3135 3134 3132 3131 3129 3127 3126 3124
3060 3062 3062 3069 3072 3073 3078 3079 3082 3085 3098 3102 3105 3106 3108 3111 3114 3118 3121 3123 3124 3126 3129 3130 3131 3132 3132 3133 3133 3134 3134 3134 3134 3132 3131 3131 3130 3129 3127 3126 3124 3122 3120
3052 3053 3057 3065 3066 3068 3075 3081 3084 3088 3090 3098 3101 3102 3105 3109 3113 3116 3118 3120 3122 3123 3124 3126 3127 3128 3128 3127 3128 3128 3128 3129 3128 3128 3126 3126 3125 3124 3123 3121 3119 3117 3116
3045 3050 3055 3063 3067 3070 3076 3078 3080 3083 3089 3089 3094 3099 3104 3107 3110 3112 3115 3117 3120 3121 3122 3122 3124 3124 3125 3124 3121 3122 3124 3124 3123 3122 3121 3120 3119 3117 3116 3114 3114 3112 3110
3044 3050 3054 3061 3066 3069 3074 3075 3079 3082 3084 3090 3094 3096 3098 3103 3107 3109 3111 3114 3117 3118 3117 3116 3119 3120 3118 3118 3116 3114 3117 3118 3116 3117 3115 3113 3113 3112 3110 3109 3108 3106 3104